Wind_Speed
37 37 36 34 32 30 28 27 25 24 22 21 20 18 17 16 15 15 14 13 12 12 13 12 11 10 10 9 9 10 9 7 6 6 6 6 6 7 5 3 6 9
37 36 36 35 33 32 30 28 27 26 25 23 21 20 18 17 17 16 16 16 14 13 13 14 13 12 12 11 10 10 9 8 8 8 8 8 7 8 7 5 4 6
38 37 36 36 35 34 32 30 29 27 26 24 23 21 19 18 18 18 19 20 18 15 14 15 15 14 13 13 12 11 10 9 9 9 9 9 9 9 9 7 5 4
40 39 37 37 36 35 33 31 30 29 27 26 25 23 21 20 19 19 21 21 20 18 16 16 16 15 15 14 14 13 11 11 10 10 10 10 10 10 10 10 9 7
41 40 38 38 37 35 34 33 31 30 29 27 26 25 23 22 20 20 21 22 21 20 18 18 17 16 16 16 16 15 14 12 12 11 11 11 10 11 11 11 12 12
41 40 40 39 38 36 35 34 33 32 31 29 27 26 24 24 23 22 22 22 21 21 21 20 19 18 18 17 17 16 15 15 13 13 13 12 11 12 12 11 12 13
42 42 41 39 38 37 35 34 33 32 31 30 28 27 26 26 26 26 24 22 22 22 22 22 21 21 20 18 18 17 17 16 15 15 15 13 13 13 12 12 12 13
43 42 41 40 39 37 36 35 34 33 32 30 28 27 27 27 28 28 27 24 23 23 22 22 22 22 21 20 19 18 18 17 17 17 16 15 14 14 14 13 13 14
43 42 41 41 40 38 37 36 35 33 32 31 29 28 28 28 28 29 28 27 25 24 23 23 23 23 22 22 21 20 19 18 19 19 18 17 15 15 15 15 15 15
43 42 42 41 40 40 38 36 35 33 32 32 30 29 29 29 29 29 29 28 27 26 25 25 25 24 23 23 22 21 20 19 19 19 20 19 17 17 16 16 16 16
44 43 43 42 41 41 39 36 34 33 32 32 31 30 30 30 31 30 29 29 28 28 27 26 27 27 25 24 23 22 21 20 20 20 20 20 19 18 18 18 18 17
45 45 44 43 42 41 39 37 34 32 32 32 32 32 30 30 31 31 30 30 30 29 29 28 28 28 28 26 25 24 23 21 21 21 21 21 20 19 19 19 19 18
47 46 44 44 43 40 39 37 35 33 32 32 33 33 32 30 30 31 32 31 31 30 30 30 30 30 30 28 27 26 25 23 23 23 23 23 22 21 20 20 20 19
46 45 44 43 42 41 38 36 35 34 33 32 33 33 33 31 30 31 31 31 32 31 31 31 31 31 31 30 28 28 27 25 24 24 23 23 23 23 22 22 21 20
44 44 44 42 41 41 39 37 36 35 34 33 33 33 33 32 31 30 30 31 32 32 31 32 32 33 32 31 30 29 28 27 26 25 24 24 23 22 22 22 22 21
43 43 43 42 42 41 40 39 37 35 35 34 34 34 33 33 32 31 30 31 31 32 32 32 33 34 33 32 30 29 29 29 28 27 26 25 24 23 23 22 22 22
43 43 42 42 43 42 41 41 38 36 36 35 35 35 33 33 34 33 31 30 31 31 32 33 34 34 33 32 31 29 28 29 29 29 27 27 26 26 25 24 23 22
42 43 43 43 43 43 43 42 40 38 37 36 36 36 35 34 34 35 33 31 30 31 31 31 33 33 33 32 30 29 28 28 29 29 29 29 28 27 27 25 24 23
42 43 43 43 44 44 43 43 42 41 39 38 37 37 36 35 34 35 35 33 31 30 31 30 30 32 32 32 30 28 27 27 28 29 30 30 29 29 28 27 26 24
42 43 44 44 44 44 43 43 43 43 41 39 38 37 37 36 35 35 36 36 33 31 31 31 29 30 31 31 30 28 27 27 27 28 29 30 30 29 28 28 27 26
42 44 44 44 44 44 44 44 44 44 42 40 38 37 37 37 36 35 35 36 36 33 32 31 30 29 29 30 30 29 28 28 28 28 29 29 28 27 27 27 26 26
44 44 45 45 45 45 45 45 44 44 44 41 38 36 36 37 37 36 35 36 37 36 34 31 30 29 29 29 29 28 27 27 27 28 29 29 28 26 26 27 26 26
44 45 45 45 45 45 46 45 45 45 44 43 40 36 34 36 37 37 36 35 36 37 36 34 31 30 29 29 29 28 26 26 26 27 29 30 30 29 28 27 28 28
45 45 46 46 46 46 47 46 45 45 45 44 43 38 34 33 35 36 35 35 35 35 36 36 34 32 31 31 30 29 28 27 27 27 28 30 31 32 32 31 31 31
44 44 45 46 46 46 47 47 46 45 44 44 44 41 35 31 31 33 33 33 34 33 34 35 35 35 34 34 33 32 31 30 29 29 29 30 30 32 34 34 35 35
44 44 45 45 45 45 47 47 46 45 45 44 44 43 39 34 31 30 31 31 31 32 33 34 35 35 35 35 35 34 33 32 32 32 31 31 31 31 32 33 35 36
Wind_Direction
216 217 219 221 222 222 222 224 229 233 233 234 237 241 240 236 230 225 230 237 226 214 219 221 219 219 216 214 206 203 216 212 196 197 179 176 174 158 179 199 160 166
216 217 219 221 222 223 223 225 229 232 233 234 236 239 242 239 231 222 221 233 234 219 219 223 221 221 220 217 212 210 214 211 207 212 197 187 192 177 174 197 199 182
217 218 219 220 222 223 224 225 228 230 232 233 232 232 235 237 232 222 216 226 235 228 221 224 225 223 222 222 219 216 214 210 208 218 214 201 201 194 180 185 214 241
217 219 219 220 222 224 225 225 225 227 227 230 231 228 226 228 230 224 218 222 230 230 224 224 226 224 222 223 223 220 217 215 211 216 221 213 207 205 194 186 191 216
218 219 219 221 222 224 226 224 224 225 226 227 231 231 224 220 225 226 222 221 224 227 225 223 225 226 224 223 224 222 220 219 218 218 222 221 216 214 211 205 194 190
219 219 220 221 222 223 225 225 223 224 226 226 227 230 224 217 219 223 223 223 222 223 224 223 224 226 226 225 224 223 222 222 222 223 224 224 223 221 219 220 218 206
219 219 220 221 221 221 223 225 224 223 226 226 224 226 224 217 216 220 223 225 223 221 224 225 225 227 228 228 226 225 225 224 224 226 228 225 223 225 223 223 230 229
219 220 219 219 220 220 221 224 224 224 225 224 219 220 222 218 217 219 221 224 223 220 222 224 226 229 228 229 229 226 227 227 224 227 232 230 226 227 229 228 234 238
218 219 219 219 220 221 222 223 224 225 223 220 215 214 217 217 218 219 220 223 224 221 220 220 224 229 229 229 231 229 227 229 229 230 234 235 231 230 232 234 236 241
216 218 219 219 220 221 222 222 223 224 223 219 214 212 213 215 217 220 221 223 224 223 221 218 219 227 231 230 232 232 229 230 233 235 237 239 237 233 233 235 236 240
216 216 218 219 218 220 221 219 218 220 222 220 215 211 211 213 215 217 220 223 223 223 222 220 219 224 230 231 232 235 234 232 233 237 240 243 243 240 238 238 240 244
216 216 218 220 218 217 218 217 213 213 218 220 216 210 208 211 214 216 218 222 224 223 222 223 222 223 228 231 231 233 236 236 235 237 241 244 246 246 245 243 245 249
216 217 217 218 217 214 213 214 210 208 212 217 217 212 207 208 214 217 218 221 225 225 223 224 225 225 227 231 230 230 234 238 239 238 241 244 247 249 250 250 250 251
215 216 215 215 215 212 209 210 209 206 208 213 214 212 207 205 211 219 220 220 224 227 226 225 226 226 227 230 231 228 230 237 241 242 243 245 247 248 249 250 251 250
210 211 211 211 212 211 208 208 208 206 206 210 213 212 208 205 207 216 220 219 221 226 227 225 226 228 229 231 232 230 228 233 240 243 244 245 247 247 247 248 246 242
207 207 208 209 210 210 208 206 207 206 204 208 213 213 209 206 205 211 218 220 220 223 224 223 225 230 233 234 236 235 232 232 237 243 245 244 245 246 247 247 245 241
206 205 206 206 208 209 208 205 205 205 204 206 212 215 212 208 205 207 213 219 220 222 225 225 226 232 237 237 237 238 237 235 237 241 245 245 243 243 246 247 245 243
206 205 205 206 207 208 209 206 204 205 205 204 209 215 215 210 207 206 209 214 218 220 224 229 231 234 238 240 239 239 239 238 237 238 241 244 244 243 245 248 247 244
207 205 205 206 207 208 209 208 205 204 205 205 207 213 215 213 210 209 208 210 215 219 222 227 233 235 237 239 240 240 239 238 238 238 238 241 244 245 245 247 250 249
208 207 206 207 208 208 209 209 207 205 205 206 206 210 214 214 212 212 211 211 213 218 222 225 230 236 238 238 239 240 240 240 239 239 238 239 242 245 246 247 250 253
208 208 208 208 208 208 208 209 209 207 206 206 206 208 213 215 214 213 214 214 213 216 222 226 228 233 238 240 240 240 240 241 240 238 237 237 238 241 245 248 250 252
209 208 208 208 208 208 209 210 210 208 206 206 205 207 211 215 216 215 215 216 216 216 219 224 226 228 234 241 245 244 241 240 240 238 236 234 233 236 240 244 248 250
209 209 208 207 207 208 209 210 210 209 208 206 205 205 208 213 216 217 216 218 219 219 219 221 224 226 230 236 243 246 244 242 241 240 238 235 232 233 234 236 240 245
209 208 208 207 208 209 210 211 211 210 209 207 207 206 206 210 215 218 219 220 221 223 223 223 225 227 229 233 238 242 244 245 244 243 242 239 237 236 236 236 238 242
208 208 208 208 209 209 209 211 212 211 211 210 210 209 207 209 214 218 220 221 222 223 226 228 229 229 232 235 237 239 242 245 247 247 247 247 245 243 242 243 244 247
208 209 209 209 210 210 211 212 213 213 213 213 212 212 210 210 213 217 220 221 222 223 227 231 233 234 236 239 241 243 245 246 248 250 252 253 254 253 251 250 250 251
Height
1546 1548 1551 1554 1556 1559 1561 1563 1565 1567 1569 1571 1572 1574 1575 1577 1578 1580 1581 1581 1583 1584 1585 1586 1587 1589 1590 1590 1592 1593 1593 1594 1595 1596 1596 1597 1598 1599 1600 1601 1601 1602
1543 1546 1548 1551 1554 1556 1559 1561 1563 1564 1567 1569 1570 1572 1574 1575 1577 1578 1580 1580 1581 1583 1584 1585 1586 1588 1589 1590 1591 1592 1593 1594 1594 1595 1596 1596 1597 1598 1599 1600 1601 1601
1540 1543 1545 1548 1550 1553 1556 1558 1560 1562 1564 1566 1569 1570 1572 1573 1575 1577 1578 1579 1580 1581 1583 1584 1585 1586 1587 1588 1590 1591 1592 1593 1593 1594 1595 1596 1597 1597 1598 1599 1600 1601
1536 1539 1542 1545 1548 1551 1553 1556 1558 1560 1562 1564 1566 1568 1570 1571 1573 1574 1576 1577 1578 1580 1581 1583 1584 1585 1586 1587 1588 1589 1590 1592 1593 1593 1594 1595 1596 1596 1597 1598 1599 1600
1533 1536 1539 1542 1545 1548 1550 1553 1555 1557 1559 1561 1563 1566 1568 1570 1571 1572 1574 1575 1576 1578 1579 1581 1582 1583 1585 1586 1587 1588 1589 1590 1591 1592 1593 1594 1595 1595 1596 1597 1597 1599
1530 1533 1536 1539 1542 1545 1547 1549 1552 1554 1557 1559 1561 1563 1565 1567 1569 1570 1571 1573 1574 1576 1577 1579 1580 1582 1583 1584 1586 1587 1588 1589 1590 1591 1592 1593 1594 1594 1595 1596 1596 1597
1527 1530 1533 1536 1539 1542 1544 1546 1549 1551 1554 1556 1558 1561 1563 1565 1567 1567 1569 1570 1572 1574 1575 1577 1578 1580 1581 1582 1584 1585 1586 1587 1588 1589 1590 1591 1592 1593 1594 1595 1595 1596
1523 1526 1530 1533 1535 1538 1541 1543 1546 1548 1551 1554 1556 1558 1560 1562 1564 1565 1567 1568 1570 1571 1573 1575 1576 1578 1579 1580 1582 1583 1584 1586 1586 1587 1588 1589 1591 1592 1592 1593 1594 1594
1519 1522 1526 1529 1532 1535 1537 1540 1542 1545 1548 1550 1553 1555 1557 1559 1561 1562 1564 1566 1567 1569 1571 1573 1574 1575 1577 1578 1579 1581 1582 1583 1585 1585 1586 1587 1589 1590 1591 1592 1592 1593
1516 1519 1522 1525 1528 1531 1534 1537 1539 1542 1545 1547 1550 1552 1554 1556 1558 1559 1561 1563 1565 1566 1568 1570 1572 1573 1574 1576 1577 1579 1580 1582 1583 1583 1584 1585 1586 1588 1589 1590 1590 1591
1513 1516 1518 1521 1524 1527 1530 1534 1536 1539 1541 1544 1546 1549 1551 1553 1555 1556 1558 1560 1562 1564 1565 1567 1569 1570 1572 1573 1575 1576 1578 1580 1581 1582 1582 1583 1584 1586 1587 1588 1588 1589
1508 1512 1514 1517 1521 1524 1527 1530 1533 1536 1538 1540 1543 1546 1548 1550 1551 1553 1555 1557 1559 1561 1563 1564 1566 1568 1569 1571 1572 1574 1576 1577 1579 1580 1581 1581 1582 1583 1584 1585 1586 1587
1504 1507 1510 1514 1517 1521 1524 1527 1530 1533 1535 1537 1540 1543 1545 1547 1548 1550 1552 1554 1556 1558 1560 1562 1563 1565 1566 1568 1570 1571 1573 1575 1576 1577 1579 1579 1580 1581 1582 1583 1583 1584
1500 1504 1507 1511 1514 1518 1522 1524 1527 1530 1532 1534 1536 1539 1542 1544 1545 1547 1549 1551 1553 1555 1557 1559 1560 1562 1564 1565 1567 1569 1570 1572 1573 1575 1576 1577 1578 1578 1579 1580 1581 1582
1497 1501 1504 1508 1511 1514 1518 1521 1524 1527 1530 1531 1533 1535 1538 1541 1543 1544 1546 1548 1550 1551 1554 1556 1557 1559 1560 1562 1564 1566 1568 1569 1570 1571 1572 1573 1575 1575 1576 1577 1578 1579
1495 1498 1501 1504 1507 1510 1514 1518 1521 1524 1527 1529 1530 1532 1535 1537 1540 1542 1543 1545 1547 1548 1550 1552 1554 1555 1557 1559 1561 1563 1565 1566 1567 1568 1569 1570 1571 1572 1573 1574 1575 1576
1493 1495 1498 1501 1504 1507 1510 1514 1518 1521 1524 1526 1528 1529 1532 1534 1537 1539 1540 1542 1543 1545 1547 1549 1550 1552 1553 1556 1558 1560 1562 1564 1564 1565 1566 1567 1569 1569 1570 1572 1573 1574
1491 1493 1496 1498 1501 1503 1506 1510 1514 1517 1520 1523 1525 1527 1529 1531 1534 1536 1537 1539 1541 1542 1544 1545 1547 1548 1550 1553 1555 1557 1559 1561 1562 1563 1563 1564 1566 1566 1568 1569 1570 1571
1489 1491 1493 1495 1497 1500 1503 1506 1510 1513 1516 1519 1522 1524 1526 1529 1531 1533 1535 1537 1538 1539 1540 1542 1544 1545 1547 1549 1552 1554 1556 1558 1559 1560 1561 1561 1562 1564 1565 1566 1567 1569
1486 1488 1490 1493 1495 1498 1501 1503 1506 1510 1513 1516 1519 1521 1523 1525 1528 1530 1532 1534 1536 1537 1538 1539 1541 1542 1544 1546 1549 1551 1553 1555 1556 1557 1558 1559 1560 1561 1562 1563 1564 1566
1483 1485 1487 1490 1492 1495 1498 1500 1503 1506 1509 1513 1515 1518 1520 1522 1525 1527 1529 1531 1533 1535 1536 1537 1539 1540 1541 1543 1546 1548 1550 1552 1553 1555 1556 1557 1558 1558 1559 1560 1561 1563
1478 1481 1484 1487 1489 1492 1494 1497 1499 1502 1506 1509 1512 1515 1517 1519 1521 1524 1526 1528 1530 1532 1534 1535 1536 1538 1539 1540 1542 1545 1547 1548 1550 1551 1553 1554 1555 1556 1557 1558 1559 1560
1474 1477 1480 1483 1486 1488 1490 1493 1496 1499 1503 1506 1509 1512 1514 1515 1517 1520 1522 1524 1526 1528 1530 1532 1534 1535 1537 1538 1539 1541 1543 1545 1547 1548 1549 1550 1552 1553 1554 1555 1556 1556
1470 1473 1477 1479 1482 1484 1487 1489 1492 1496 1499 1502 1505 1508 1510 1512 1514 1516 1519 1521 1523 1525 1526 1529 1531 1532 1534 1535 1536 1538 1540 1542 1543 1545 1545 1547 1548 1549 1550 1551 1552 1553
1467 1470 1473 1476 1478 1481 1483 1486 1489 1492 1496 1499 1502 1505 1508 1510 1512 1514 1516 1518 1520 1521 1523 1525 1527 1529 1530 1532 1533 1535 1537 1538 1540 1541 1542 1543 1544 1546 1547 1548 1548 1549
1464 1466 1469 1472 1474 1477 1480 1483 1486 1489 1492 1496 1499 1502 1505 1507 1509 1511 1512 1515 1517 1518 1520 1521 1523 1525 1527 1528 1530 1532 1533 1535 1536 1537 1538 1539 1541 1542 1543 1544 1545 1545